Weather History for KAKO - October, 2012

Change the Weather History Date:

Monday, October 1, 2012

  Actual Average Record
Temperature  
Mean Temperature 56 °F 56 °F  
Max Temperature 66 °F 70 °F 89 °F (1938)
Min Temperature 45 °F 42 °F 28 °F (1954)
Degree Days  
Heating Degree Days 9    
Month to date heating degree days 9  
Cooling Degree Days 0    
Month to date cooling degree days 0  
Growing Degree Days 5 (Base 50)    
Moisture  
Dew Point 39 °F    
Average Humidity 54    
Maximum Humidity 77    
Minimum Humidity 31    
Precipitation  
Precipitation T in 0.04 in 0.89 in (1994)
Month to date precipitation T 0.04  
Year to date precipitation 7.10 14.69  
Sea Level Pressure  
Sea Level Pressure 30.16 in    
Wind  
Wind Speed 11 mph (North)    
Max Wind Speed 24 mph    
Max Gust Speed 35 mph    
Visibility 10 miles    
Events      
T = Trace of Precipitation, MM = Missing Value Source: NWS Daily Summary

Daily Weather History Graph

Daily Weather History Graph

Search for Another Location

Airport or City:

Trip Planner

Search our weather history database for the weather conditions in past years. The results will help you decide how hot, cold, wet, or windy it might be!

Date:

Astronomy

Oct. 01, 2012 Rise Set
Actual Time 6:49 AM MDT 6:34 PM MDT
Civil Twilight 6:22 AM MDT 7:01 PM MDT
Nautical Twilight 5:51 AM MDT 7:32 PM MDT
Astronomical Twilight 5:19 AM MDT 8:04 PM MDT
Moon 7:12 PM MDT (10/1) 8:21 AM MDT (10/1)
Length of Visible Light 12h 38m
Length of Day
11h 44m
Full, 97% of the Moon is Illuminated
Oct 1
Full
Oct 8
Last Quarter
Oct 15
New
Oct 21
First Quarter
Oct 29
Full

Hourly Weather History & Observations

Time (MDT) Temp. Windchill Dew Point Humidity Pressure Visibility Wind Dir Wind Speed Gust Speed Precip Events Conditions
12:53 AM 54.0 °F - 39.0 °F 57% 30.05 in 10.0 mi NW 4.6 mph - 0.00 in   Partly Cloudy
1:53 AM 50.0 °F - 43.0 °F 77% 30.06 in 10.0 mi NNE 6.9 mph - N/A   Clear
2:53 AM 52.0 °F - 44.1 °F 74% 30.08 in 10.0 mi North 4.6 mph - N/A   Overcast
3:53 AM 53.1 °F - 43.0 °F 69% 30.08 in 10.0 mi NNW 10.4 mph - N/A   Mostly Cloudy
4:53 AM 53.1 °F - 44.1 °F 71% 30.11 in 10.0 mi NW 9.2 mph - 0.00 in   Mostly Cloudy
6:53 AM 52.0 °F - 41.0 °F 66% 30.18 in 10.0 mi NNW 11.5 mph - N/A   Clear
7:53 AM 54.0 °F - 39.9 °F 59% 30.20 in 10.0 mi NNW 16.1 mph - N/A   Clear
8:53 AM 57.0 °F - 39.9 °F 53% 30.22 in 10.0 mi North 16.1 mph 25.3 mph N/A   Clear
9:53 AM 57.0 °F - 43.0 °F 59% 30.23 in 10.0 mi North 19.6 mph 24.2 mph N/A   Clear
11:53 AM 60.1 °F - 45.0 °F 57% 30.21 in 10.0 mi North 23.0 mph 29.9 mph N/A   Partly Cloudy
12:20 PM 59.0 °F - 44.6 °F 59% 30.30 in 10.0 mi North 21.9 mph 27.6 mph N/A   Mostly Cloudy
12:39 PM 60.8 °F - 41.0 °F 48% 30.30 in 10.0 mi North 18.4 mph 26.5 mph N/A   Mostly Cloudy
12:53 PM 61.0 °F - 42.1 °F 50% 30.20 in 10.0 mi North 20.7 mph 26.5 mph N/A   Mostly Cloudy
1:53 PM 64.0 °F - 39.9 °F 41% 30.17 in 10.0 mi North 21.9 mph 27.6 mph N/A   Partly Cloudy
2:53 PM 64.0 °F - 37.9 °F 38% 30.16 in 10.0 mi North 15.0 mph 25.3 mph N/A   Partly Cloudy
4:53 PM 64.0 °F - 33.1 °F 31% 30.12 in 10.0 mi North 15.0 mph - N/A   Clear
5:53 PM 62.1 °F - 33.1 °F 34% 30.12 in 10.0 mi NE 10.4 mph - N/A   Clear
6:53 PM 53.1 °F - 30.9 °F 43% 30.13 in 10.0 mi NE 10.4 mph - N/A   Clear
7:53 PM 51.1 °F - 30.9 °F 46% 30.13 in 10.0 mi ESE 4.6 mph - N/A   Clear
10:53 PM 46.0 °F 43.1 °F 32.0 °F 58% 30.12 in 10.0 mi South 5.8 mph - N/A   Clear
11:53 PM 46.0 °F 42.5 °F 32.0 °F 58% 30.11 in 10.0 mi South 6.9 mph - N/A   Clear